Previsão horária em Judziki

Hoje, 14 Junho, Segunda-feira

Tempo Temperatura Precipitação Vento Pressão Humidade
00:00 +8°C° 0 mm 4 m/s 747 mmHg 88%
01:00 +7°C° 0 mm 4 m/s 747 mmHg 90%
02:00 +6°C° 0 mm 4 m/s 747 mmHg 91%
03:00 +7°C° 0 mm 3 m/s 747 mmHg 90%
04:00 +5°C° 0 mm 3 m/s 747 mmHg 89%
05:00 +5°C° 0 mm 3 m/s 748 mmHg 88%
06:00 +8°C° 0 mm 3 m/s 748 mmHg 80%
07:00 +10°C° 0 mm 3 m/s 748 mmHg 71%
08:00 +12°C° 0 mm 4 m/s 748 mmHg 63%
09:00 +14°C° 0 mm 4 m/s 748 mmHg 59%
10:00 +15°C° 0 mm 4 m/s 748 mmHg 55%
11:00 +17°C° 0 mm 3 m/s 749 mmHg 51%
12:00 +18°C° 0 mm 3 m/s 748 mmHg 50%
13:00 +19°C° 0 mm 3 m/s 748 mmHg 49%
14:00 +20°C° 0 mm 3 m/s 748 mmHg 49%
15:00 +20°C° 0 mm 2 m/s 748 mmHg 50%
16:00 +20°C° 0 mm 2 m/s 748 mmHg 51%
17:00 +20°C° 0 mm 2 m/s 747 mmHg 53%
18:00 +19°C° 0 mm 2 m/s 747 mmHg 60%
19:00 +18°C° 0 mm 1 m/s 747 mmHg 67%
20:00 +16°C° 0 mm 1 m/s 747 mmHg 74%
21:00 +15°C° 0 mm 1 m/s 747 mmHg 76%
22:00 +14°C° 0 mm 1 m/s 747 mmHg 78%
23:00 +12°C° 0 mm 1 m/s 747 mmHg 80%

Amanhã, 15 Junho, Terça-feira

Tempo Temperatura Precipitação Vento Pressão Humidade
00:00 +12°C° 0 mm 2 m/s 746 mmHg 82%
01:00 +12°C° 0 mm 2 m/s 746 mmHg 83%
02:00 +10°C° 0 mm 2 m/s 746 mmHg 84%
03:00 +10°C° 0 mm 2 m/s 746 mmHg 84%
04:00 +10°C° 0 mm 3 m/s 746 mmHg 85%
05:00 +11°C° 0 mm 3 m/s 746 mmHg 85%
06:00 +13°C° 0 mm 3 m/s 746 mmHg 81%
07:00 +14°C° 0 mm 3 m/s 746 mmHg 78%
08:00 +17°C° 0 mm 4 m/s 746 mmHg 75%
09:00 +19°C° 0 mm 4 m/s 746 mmHg 73%
10:00 +20°C° 0 mm 4 m/s 745 mmHg 71%
11:00 +21°C° 0 mm 4 m/s 745 mmHg 69%
12:00 +21°C° 0.1 mm 4 m/s 745 mmHg 70%
13:00 +21°C° 0.1 mm 4 m/s 745 mmHg 72%
14:00 +21°C° 0.1 mm 4 m/s 745 mmHg 73%
15:00 +20°C° 0.3 mm 4 m/s 745 mmHg 78%
16:00 +19°C° 0.3 mm 4 m/s 745 mmHg 83%
17:00 +18°C° 0.3 mm 4 m/s 745 mmHg 88%
18:00 +17°C° 0 mm 3 m/s 745 mmHg 86%
19:00 +16°C° 0 mm 3 m/s 746 mmHg 84%
20:00 +14°C° 0 mm 3 m/s 746 mmHg 81%
21:00 +12°C° 0 mm 3 m/s 746 mmHg 85%
22:00 +10°C° 0 mm 3 m/s 746 mmHg 89%
23:00 +9°C° 0 mm 3 m/s 746 mmHg 93%

Depois de amanhã, 16 Junho, Quarta-feira

Tempo Temperatura Precipitação Vento Pressão Humidade
00:00 +8°C° 0 mm 2 m/s 746 mmHg 93%
01:00 +8°C° 0 mm 2 m/s 747 mmHg 94%
02:00 +7°C° 0 mm 2 m/s 747 mmHg 94%
03:00 +7°C° 0 mm 2 m/s 747 mmHg 94%
04:00 +7°C° 0 mm 2 m/s 747 mmHg 93%
05:00 +8°C° 0 mm 2 m/s 748 mmHg 93%
06:00 +11°C° 0 mm 1 m/s 748 mmHg 85%
07:00 +13°C° 0 mm 1 m/s 748 mmHg 78%
08:00 +15°C° 0 mm 1 m/s 748 mmHg 70%
09:00 +16°C° 0 mm 1 m/s 748 mmHg 65%
10:00 +19°C° 0 mm 1 m/s 749 mmHg 59%
11:00 +20°C° 0 mm 1 m/s 749 mmHg 53%
12:00 +21°C° 0 mm 1 m/s 749 mmHg 52%
13:00 +20°C° 0 mm 2 m/s 749 mmHg 51%
14:00 +21°C° 0 mm 2 m/s 749 mmHg 50%
15:00 +21°C° 0 mm 2 m/s 749 mmHg 51%
16:00 +21°C° 0 mm 2 m/s 749 mmHg 52%
17:00 +21°C° 0 mm 2 m/s 749 mmHg 54%
18:00 +20°C° 0 mm 2 m/s 749 mmHg 61%
19:00 +18°C° 0 mm 2 m/s 749 mmHg 69%
20:00 +17°C° 0 mm 2 m/s 749 mmHg 76%
21:00 +16°C° 0 mm 2 m/s 749 mmHg 79%
22:00 +14°C° 0 mm 1 m/s 749 mmHg 82%
23:00 +13°C° 0 mm 1 m/s 749 mmHg 84%

17 Junho, Quinta-feira

Tempo Temperatura Precipitação Vento Pressão Humidade
00:00 +13°C° 0 mm 1 m/s 750 mmHg 85%
01:00 +12°C° 0 mm 1 m/s 750 mmHg 86%
02:00 +12°C° 0 mm 1 m/s 750 mmHg 88%
03:00 +12°C° 0 mm 2 m/s 750 mmHg 88%
04:00 +12°C° 0 mm 2 m/s 750 mmHg 88%
05:00 +12°C° 0 mm 2 m/s 750 mmHg 88%
06:00 +14°C° 0 mm 2 m/s 750 mmHg 81%
07:00 +16°C° 0 mm 2 m/s 751 mmHg 75%
08:00 +18°C° 0 mm 2 m/s 751 mmHg 69%
09:00 +19°C° 0 mm 2 m/s 751 mmHg 64%
10:00 +20°C° 0 mm 2 m/s 751 mmHg 59%
11:00 +23°C° 0 mm 2 m/s 751 mmHg 54%
12:00 +22°C° 0 mm 3 m/s 751 mmHg 52%
13:00 +24°C° 0 mm 3 m/s 751 mmHg 50%
14:00 +25°C° 0 mm 3 m/s 751 mmHg 48%
15:00 +25°C° 0 mm 3 m/s 751 mmHg 50%
16:00 +25°C° 0 mm 3 m/s 750 mmHg 53%
17:00 +25°C° 0 mm 3 m/s 750 mmHg 55%
18:00 +23°C° 0 mm 2 m/s 750 mmHg 62%
19:00 +21°C° 0 mm 2 m/s 750 mmHg 69%
20:00 +19°C° 0 mm 2 m/s 750 mmHg 76%
21:00 +18°C° 0 mm 2 m/s 750 mmHg 79%
22:00 +16°C° 0 mm 2 m/s 750 mmHg 81%
23:00 +15°C° 0 mm 2 m/s 750 mmHg 84%

18 Junho, Sexta-feira

Tempo Temperatura Precipitação Vento Pressão Humidade
00:00 +15°C° 0 mm 2 m/s 750 mmHg 86%
01:00 +14°C° 0 mm 2 m/s 750 mmHg 87%
02:00 +14°C° 0 mm 2 m/s 750 mmHg 89%
03:00 +14°C° 0 mm 2 m/s 750 mmHg 89%
04:00 +14°C° 0 mm 2 m/s 750 mmHg 89%
05:00 +14°C° 0 mm 2 m/s 750 mmHg 88%
06:00 +16°C° 0 mm 3 m/s 750 mmHg 83%
07:00 +18°C° 0 mm 3 m/s 750 mmHg 77%
08:00 +20°C° 0 mm 3 m/s 750 mmHg 72%
09:00 +22°C° 0 mm 3 m/s 750 mmHg 69%
10:00 +25°C° 0 mm 4 m/s 750 mmHg 67%
11:00 +26°C° 0 mm 4 m/s 750 mmHg 64%
12:00 +27°C° 0 mm 4 m/s 750 mmHg 61%
13:00 +28°C° 0 mm 4 m/s 750 mmHg 59%
14:00 +29°C° 0 mm 5 m/s 750 mmHg 56%
15:00 +29°C° 0 mm 4 m/s 749 mmHg 58%
16:00 +29°C° 0 mm 4 m/s 749 mmHg 60%
17:00 +29°C° 0 mm 4 m/s 749 mmHg 61%
18:00 +27°C° 0 mm 4 m/s 749 mmHg 67%
19:00 +26°C° 0 mm 3 m/s 749 mmHg 73%
20:00 +24°C° 0 mm 3 m/s 749 mmHg 79%
21:00 +22°C° 0 mm 3 m/s 749 mmHg 83%
22:00 +21°C° 0 mm 3 m/s 749 mmHg 86%
23:00 +20°C° 0 mm 3 m/s 749 mmHg 89%

19 Junho, Sábado

Tempo Temperatura Precipitação Vento Pressão Humidade
00:00 +19°C° 0 mm 3 m/s 750 mmHg 91%
01:00 +19°C° 0 mm 3 m/s 750 mmHg 93%
02:00 +19°C° 0 mm 3 m/s 750 mmHg 95%
03:00 +19°C° 0 mm 3 m/s 750 mmHg 95%
04:00 +18°C° 0 mm 3 m/s 750 mmHg 95%
05:00 +18°C° 0 mm 3 m/s 750 mmHg 95%
06:00 +20°C° 0 mm 3 m/s 750 mmHg 90%
07:00 +22°C° 0 mm 4 m/s 750 mmHg 84%
08:00 +23°C° 0 mm 4 m/s 750 mmHg 78%
09:00 +25°C° 0 mm 5 m/s 750 mmHg 73%
10:00 +26°C° 0 mm 5 m/s 750 mmHg 69%
11:00 +28°C° 0 mm 5 m/s 750 mmHg 64%
12:00 +28°C° 0 mm 5 m/s 750 mmHg 61%
13:00 +28°C° 0 mm 5 m/s 750 mmHg 58%
14:00 +29°C° 0 mm 5 m/s 750 mmHg 55%
15:00 +29°C° 0 mm 5 m/s 749 mmHg 57%
16:00 +28°C° 0 mm 5 m/s 749 mmHg 59%
17:00 +28°C° 0 mm 4 m/s 749 mmHg 61%
18:00 +27°C° 0 mm 4 m/s 749 mmHg 67%
19:00 +26°C° 0 mm 3 m/s 749 mmHg 73%
20:00 +24°C° 0 mm 3 m/s 748 mmHg 79%
21:00 +22°C° 0 mm 3 m/s 749 mmHg 82%
22:00 +21°C° 0 mm 3 m/s 749 mmHg 86%
23:00 +19°C° 0 mm 3 m/s 749 mmHg 89%
Mostrar mais

Necessitamos do seu Consentimento

A Meteoprog e os seus Fornecedores de Serviços podem armazenar e aceder a dados pessoais como cookies, identificadores do dispositivo ou outras tecnologias semelhantes existentes no seu dispositivo e processar estes dados para personalizar conteúdos e anúncios, assim como funcionalidades nas redes sociais e análise de tráfego.

  • Armazenar e/ou aceder a informações no seu dispositivo

    Os cookies, identificadores do dispositivo ou outras informações podem ser armazenados ou acedidos no seu dispositivo, para os fins acima indicados.

  • Anúncios e conteúdos personalizados, medição de anúncios e conteúdos, dados sobre o público-alvo e desenvolvimento de produtos

    Os anúncios e os conteúdos podem ser personalizados com base num perfil. Podem ser adicionados dados adicionais para uma maior personalização dos anúncios e dos conteúdos. A eficácia dos anúncios e dos conteúdos pode ser medida. Podem ser obtidas informações sobre o público que visualizou os anúncios e os conteúdos. Estes dados podem ser usados para desenvolver ou melhorar sistemas, softwares ou a experiência do utilizador.

Ao clicar em "Eu concordo”, permitirá o uso de cookies, identificadores do dispositivo e web beacons mencionados ou outras tecnologias semelhantes. As configurações do navegador do seu dispositivo podem ser alteradas.

Para certos fins, podem ser invocados interesses legítimos ao invés de consentimento. Pode ler mais informação sobre este assunto na nossa Política de Privacidade e Cookies.